Data supplied by UK-AIR on 30/3/2022
All Data GMT hour ending 
Status: R =Ratified P=Provisional,P*=As supplied
,,Grangemouth Moray,,,,,,,,,,,,,,,,,,,,,,,
Date,time,"Nitric oxide",status,unit,"Nitrogen dioxide",status,unit,"Nitrogen oxides as nitrogen dioxide",status,unit
 
01-01-2021,01:00,,,,,,,,,
01-01-2021,02:00,0.21803,R,ugm-3,6.42048,R,ugm-3,6.75479,R,ugm-3
01-01-2021,03:00,0.29071,R,ugm-3,5.92147,R,ugm-3,6.36722,R,ugm-3
01-01-2021,04:00,0.25437,R,ugm-3,7.41673,R,ugm-3,7.80676,R,ugm-3
01-01-2021,05:00,0.54508,R,ugm-3,9.85008,R,ugm-3,10.68585,R,ugm-3
01-01-2021,06:00,0.58142,R,ugm-3,10.45876,R,ugm-3,11.35025,R,ugm-3
01-01-2021,07:00,0.39972,R,ugm-3,15.44355,R,ugm-3,16.05646,R,ugm-3
01-01-2021,08:00,0.58142,R,ugm-3,20.09264,R,ugm-3,20.98413,R,ugm-3
01-01-2021,09:00,1.52622,R,ugm-3,22.74113,R,ugm-3,25.08129,R,ugm-3
01-01-2021,10:00,5.95951,R,ugm-3,25.46665,R,ugm-3,34.60443,R,ugm-3
01-01-2021,11:00,4.61498,R,ugm-3,21.65931,R,ugm-3,28.73552,R,ugm-3
01-01-2021,12:00,1.30818,R,ugm-3,7.90485,R,ugm-3,9.91071,R,ugm-3
01-01-2021,13:00,0.72677,R,ugm-3,4.58845,R,ugm-3,5.70281,R,ugm-3
01-01-2021,14:00,0.90846,R,ugm-3,5.97087,R,ugm-3,7.36382,R,ugm-3
01-01-2021,15:00,0.69043,R,ugm-3,6.41591,R,ugm-3,7.47456,R,ugm-3
01-01-2021,16:00,0.50874,R,ugm-3,10.45946,R,ugm-3,11.23952,R,ugm-3
01-01-2021,17:00,0.72677,R,ugm-3,26.51381,R,ugm-3,27.62818,R,ugm-3
01-01-2021,18:00,0.32705,R,ugm-3,14.17081,R,ugm-3,14.67228,R,ugm-3
01-01-2021,19:00,0.32705,R,ugm-3,15.27816,R,ugm-3,15.77962,R,ugm-3
01-01-2021,20:00,1.09015,R,ugm-3,23.57585,R,ugm-3,25.24739,R,ugm-3
01-01-2021,21:00,0.79945,R,ugm-3,20.86567,R,ugm-3,22.09147,R,ugm-3
01-01-2021,22:00,0.32705,R,ugm-3,14.66912,R,ugm-3,15.17058,R,ugm-3
01-01-2021,23:00,0.79945,R,ugm-3,15.71653,R,ugm-3,16.94233,R,ugm-3
01-01-2021,24:00,0.54508,R,ugm-3,23.35964,R,ugm-3,24.19542,R,ugm-3
02-01-2021,01:00,0.63069,R,ugm-3,25.50214,R,ugm-3,26.46919,R,ugm-3
02-01-2021,02:00,0.69134,R,ugm-3,29.60503,R,ugm-3,30.66507,R,ugm-3
02-01-2021,03:00,0.87327,R,ugm-3,31.21145,R,ugm-3,32.55044,R,ugm-3
02-01-2021,04:00,3.71139,R,ugm-3,39.17012,R,ugm-3,44.86083,R,ugm-3
02-01-2021,05:00,2.00124,R,ugm-3,33.30812,R,ugm-3,36.37665,R,ugm-3
02-01-2021,06:00,7.71386,R,ugm-3,21.05540,R,ugm-3,32.88316,R,ugm-3
02-01-2021,07:00,4.00248,R,ugm-3,32.84586,R,ugm-3,38.98290,R,ugm-3
02-01-2021,08:00,4.51188,R,ugm-3,35.11465,R,ugm-3,42.03277,R,ugm-3
02-01-2021,09:00,2.29233,R,ugm-3,25.09849,R,ugm-3,28.61334,R,ugm-3
02-01-2021,10:00,9.24208,R,ugm-3,35.90235,R,ugm-3,50.07334,R,ugm-3
02-01-2021,11:00,27.43515,R,ugm-3,42.05435,R,ugm-3,84.12099,R,ugm-3
02-01-2021,12:00,25.36114,R,ugm-3,36.63936,R,ugm-3,75.52590,R,ugm-3
02-01-2021,13:00,2.65619,R,ugm-3,13.33923,R,ugm-3,17.41199,R,ugm-3
02-01-2021,14:00,1.30990,R,ugm-3,9.08195,R,ugm-3,11.09044,R,ugm-3
02-01-2021,15:00,0.98243,R,ugm-3,10.36041,R,ugm-3,11.86677,R,ugm-3
02-01-2021,16:00,0.83688,R,ugm-3,18.90140,R,ugm-3,20.18460,R,ugm-3
02-01-2021,17:00,9.96980,R,ugm-3,42.27257,R,ugm-3,57.55939,R,ugm-3
02-01-2021,18:00,20.74010,R,ugm-3,62.13499,R,ugm-3,93.93603,R,ugm-3
02-01-2021,19:00,23.46906,R,ugm-3,57.89519,R,ugm-3,93.88058,R,ugm-3
02-01-2021,20:00,15.13664,R,ugm-3,54.97842,R,ugm-3,78.18761,R,ugm-3
02-01-2021,21:00,26.01609,R,ugm-3,55.37610,R,ugm-3,95.26689,R,ugm-3
02-01-2021,22:00,20.84926,R,ugm-3,51.76441,R,ugm-3,83.73283,R,ugm-3
02-01-2021,23:00,16.19183,R,ugm-3,50.36606,R,ugm-3,75.19319,R,ugm-3
02-01-2021,24:00,8.91461,R,ugm-3,43.28054,R,ugm-3,56.94941,R,ugm-3
03-01-2021,01:00,,,,,,,,,
03-01-2021,02:00,0.69224,R,ugm-3,25.87418,R,ugm-3,26.93560,R,ugm-3
03-01-2021,03:00,0.47364,R,ugm-3,20.60009,R,ugm-3,21.32633,R,ugm-3
03-01-2021,04:00,0.40077,R,ugm-3,18.49033,R,ugm-3,19.10484,R,ugm-3
03-01-2021,05:00,0.80154,R,ugm-3,20.37500,R,ugm-3,21.60402,R,ugm-3
03-01-2021,06:00,1.74882,R,ugm-3,27.03098,R,ugm-3,29.71247,R,ugm-3
03-01-2021,07:00,2.47750,R,ugm-3,32.80031,R,ugm-3,36.59910,R,ugm-3
03-01-2021,08:00,7.94257,R,ugm-3,43.13673,R,ugm-3,55.31517,R,ugm-3
03-01-2021,09:00,11.95030,R,ugm-3,49.15432,R,ugm-3,67.47785,R,ugm-3
03-01-2021,10:00,13.29835,R,ugm-3,45.92105,R,ugm-3,66.31156,R,ugm-3
03-01-2021,11:00,22.47967,R,ugm-3,43.17283,R,ugm-3,77.64118,R,ugm-3
03-01-2021,12:00,17.01460,R,ugm-3,35.89097,R,ugm-3,61.97965,R,ugm-3
03-01-2021,13:00,3.53408,R,ugm-3,12.57524,R,ugm-3,17.99409,R,ugm-3
03-01-2021,14:00,3.06044,R,ugm-3,12.80164,R,ugm-3,17.49426,R,ugm-3
03-01-2021,15:00,4.48136,R,ugm-3,16.39881,R,ugm-3,23.27014,R,ugm-3
03-01-2021,16:00,7.76041,R,ugm-3,25.08873,R,ugm-3,36.98786,R,ugm-3
03-01-2021,17:00,1.85813,R,ugm-3,19.25477,R,ugm-3,22.10386,R,ugm-3
03-01-2021,18:00,3.42478,R,ugm-3,20.68467,R,ugm-3,25.93593,R,ugm-3
03-01-2021,19:00,1.67596,R,ugm-3,15.81309,R,ugm-3,18.38285,R,ugm-3
03-01-2021,20:00,1.96743,R,ugm-3,20.97544,R,ugm-3,23.99212,R,ugm-3
03-01-2021,21:00,1.60309,R,ugm-3,18.92383,R,ugm-3,21.38187,R,ugm-3
03-01-2021,22:00,1.82169,R,ugm-3,18.86633,R,ugm-3,21.65956,R,ugm-3
03-01-2021,23:00,1.63952,R,ugm-3,16.97970,R,ugm-3,19.49360,R,ugm-3
03-01-2021,24:00,0.47364,R,ugm-3,7.71544,R,ugm-3,8.44167,R,ugm-3
04-01-2021,01:00,,,,,,,,,
04-01-2021,02:00,8.46371,R,ugm-3,34.07908,R,ugm-3,47.05658,R,ugm-3
04-01-2021,03:00,3.50223,R,ugm-3,15.48841,R,ugm-3,20.85842,R,ugm-3
04-01-2021,04:00,0.36482,R,ugm-3,10.45387,R,ugm-3,11.01324,R,ugm-3
04-01-2021,05:00,0.65667,R,ugm-3,14.84552,R,ugm-3,15.85240,R,ugm-3
04-01-2021,06:00,4.59667,R,ugm-3,26.93718,R,ugm-3,33.98531,R,ugm-3
04-01-2021,07:00,2.62667,R,ugm-3,20.83573,R,ugm-3,24.86323,R,ugm-3
04-01-2021,08:00,2.99148,R,ugm-3,24.39241,R,ugm-3,28.97929,R,ugm-3
04-01-2021,09:00,2.37130,R,ugm-3,20.50420,R,ugm-3,24.14014,R,ugm-3
04-01-2021,10:00,3.97649,R,ugm-3,22.43712,R,ugm-3,28.53431,R,ugm-3
04-01-2021,11:00,4.04945,R,ugm-3,18.82103,R,ugm-3,25.03010,R,ugm-3
04-01-2021,12:00,4.92500,R,ugm-3,20.92712,R,ugm-3,28.47869,R,ugm-3
04-01-2021,13:00,2.07945,R,ugm-3,10.04970,R,ugm-3,13.23814,R,ugm-3
04-01-2021,14:00,4.88852,R,ugm-3,24.65414,R,ugm-3,32.14977,R,ugm-3
04-01-2021,15:00,3.64815,R,ugm-3,21.27189,R,ugm-3,26.86564,R,ugm-3
04-01-2021,16:00,8.02593,R,ugm-3,33.69350,R,ugm-3,45.99976,R,ugm-3
04-01-2021,17:00,2.80908,R,ugm-3,21.44600,R,ugm-3,25.75319,R,ugm-3
04-01-2021,18:00,2.95500,R,ugm-3,19.77607,R,ugm-3,24.30701,R,ugm-3
04-01-2021,19:00,5.80056,R,ugm-3,27.14927,R,ugm-3,36.04334,R,ugm-3
04-01-2021,20:00,1.60519,R,ugm-3,17.89656,R,ugm-3,20.35781,R,ugm-3
04-01-2021,21:00,1.45926,R,ugm-3,19.12152,R,ugm-3,21.35902,R,ugm-3
04-01-2021,22:00,1.27685,R,ugm-3,13.78334,R,ugm-3,15.74115,R,ugm-3
04-01-2021,23:00,1.86056,R,ugm-3,21.17608,R,ugm-3,24.02889,R,ugm-3
04-01-2021,24:00,0.87556,R,ugm-3,10.95006,R,ugm-3,12.29256,R,ugm-3
05-01-2021,01:00,,,,,,,,,
05-01-2021,02:00,0.14612,R,ugm-3,2.72846,R,ugm-3,2.95250,R,ugm-3
05-01-2021,03:00,0.29223,R,ugm-3,2.67154,R,ugm-3,3.11962,R,ugm-3
05-01-2021,04:00,0.18265,R,ugm-3,4.73363,R,ugm-3,5.01368,R,ugm-3
05-01-2021,05:00,0.25570,R,ugm-3,10.97227,R,ugm-3,11.36434,R,ugm-3
05-01-2021,06:00,1.05935,R,ugm-3,12.97107,R,ugm-3,14.59538,R,ugm-3
05-01-2021,07:00,1.20546,R,ugm-3,14.41826,R,ugm-3,16.26661,R,ugm-3
05-01-2021,08:00,2.30134,R,ugm-3,16.97171,R,ugm-3,20.50038,R,ugm-3
05-01-2021,09:00,2.37440,R,ugm-3,19.92361,R,ugm-3,23.56430,R,ugm-3
05-01-2021,10:00,2.84928,R,ugm-3,22.31509,R,ugm-3,26.68392,R,ugm-3
05-01-2021,11:00,5.80814,R,ugm-3,26.24578,R,ugm-3,35.15147,R,ugm-3
05-01-2021,12:00,9.20536,R,ugm-3,28.83584,R,ugm-3,42.95053,R,ugm-3
05-01-2021,13:00,8.80354,R,ugm-3,32.68300,R,ugm-3,46.18156,R,ugm-3
05-01-2021,14:00,5.36979,R,ugm-3,23.63116,R,ugm-3,31.86472,R,ugm-3
05-01-2021,15:00,2.11869,R,ugm-3,14.91205,R,ugm-3,18.16066,R,ugm-3
05-01-2021,16:00,2.70316,R,ugm-3,19.14097,R,ugm-3,23.28576,R,ugm-3
05-01-2021,17:00,16.73037,R,ugm-3,42.08751,R,ugm-3,67.74039,R,ugm-3
05-01-2021,18:00,9.46106,R,ugm-3,45.93594,R,ugm-3,60.44270,R,ugm-3
05-01-2021,19:00,7.63460,R,ugm-3,38.20774,R,ugm-3,49.91397,R,ugm-3
05-01-2021,20:00,21.95405,R,ugm-3,48.78478,R,ugm-3,82.44719,R,ugm-3
05-01-2021,21:00,6.53873,R,ugm-3,30.75203,R,ugm-3,40.77793,R,ugm-3
05-01-2021,22:00,5.88120,R,ugm-3,35.82687,R,ugm-3,44.84458,R,ugm-3
05-01-2021,23:00,16.80343,R,ugm-3,45.42936,R,ugm-3,71.19426,R,ugm-3
05-01-2021,24:00,3.28763,R,ugm-3,37.74245,R,ugm-3,42.78340,R,ugm-3
06-01-2021,01:00,3.60892,R,ugm-3,35.08347,R,ugm-3,40.61707,R,ugm-3
06-01-2021,02:00,1.64596,R,ugm-3,30.72867,R,ugm-3,33.25244,R,ugm-3
06-01-2021,03:00,0.54865,R,ugm-3,19.85783,R,ugm-3,20.69908,R,ugm-3
06-01-2021,04:00,0.54865,R,ugm-3,16.39868,R,ugm-3,17.23994,R,ugm-3
06-01-2021,05:00,1.24361,R,ugm-3,15.22150,R,ugm-3,17.12835,R,ugm-3
06-01-2021,06:00,16.93510,R,ugm-3,23.63290,R,ugm-3,49.59969,R,ugm-3
06-01-2021,07:00,39.46646,R,ugm-3,34.05420,R,ugm-3,94.56858,R,ugm-3
06-01-2021,08:00,91.03986,R,ugm-3,44.13277,R,ugm-3,183.72528,R,ugm-3
06-01-2021,09:00,114.63195,R,ugm-3,48.35264,R,ugm-3,224.11917,R,ugm-3
06-01-2021,10:00,166.02247,R,ugm-3,60.77596,R,ugm-3,315.34020,R,ugm-3
06-01-2021,11:00,143.60084,R,ugm-3,57.99739,R,ugm-3,278.18227,R,ugm-3
06-01-2021,12:00,104.06123,R,ugm-3,52.23067,R,ugm-3,211.78899,R,ugm-3
06-01-2021,13:00,51.28079,R,ugm-3,41.21322,R,ugm-3,119.84266,R,ugm-3
06-01-2021,14:00,49.30564,R,ugm-3,42.34479,R,ugm-3,117.94572,R,ugm-3
06-01-2021,15:00,26.37193,R,ugm-3,34.54896,R,ugm-3,74.98536,R,ugm-3
06-01-2021,16:00,6.40095,R,ugm-3,29.74235,R,ugm-3,39.55701,R,ugm-3
06-01-2021,17:00,61.70520,R,ugm-3,52.00983,R,ugm-3,146.62315,R,ugm-3
06-01-2021,18:00,90.96671,R,ugm-3,56.24037,R,ugm-3,195.72070,R,ugm-3
06-01-2021,19:00,52.96333,R,ugm-3,48.89922,R,ugm-3,130.10852,R,ugm-3
06-01-2021,20:00,52.15863,R,ugm-3,48.51507,R,ugm-3,128.49053,R,ugm-3
06-01-2021,21:00,42.72180,R,ugm-3,48.53438,R,ugm-3,114.04023,R,ugm-3
06-01-2021,22:00,39.53961,R,ugm-3,46.04904,R,ugm-3,106.67559,R,ugm-3
06-01-2021,23:00,41.73422,R,ugm-3,45.97578,R,ugm-3,109.96736,R,ugm-3
06-01-2021,24:00,39.94196,R,ugm-3,42.80986,R,ugm-3,104.05334,R,ugm-3
07-01-2021,01:00,,,,,,,,,
07-01-2021,02:00,23.58622,R,ugm-3,37.92892,R,ugm-3,74.09395,R,ugm-3
07-01-2021,03:00,16.51768,R,ugm-3,36.97698,R,ugm-3,62.30374,R,ugm-3
07-01-2021,04:00,8.35040,R,ugm-3,37.09510,R,ugm-3,49.89887,R,ugm-3
07-01-2021,05:00,3.40608,R,ugm-3,34.84179,R,ugm-3,40.06438,R,ugm-3
07-01-2021,06:00,1.02549,R,ugm-3,25.91948,R,ugm-3,27.49187,R,ugm-3
07-01-2021,07:00,8.31378,R,ugm-3,33.57508,R,ugm-3,46.32269,R,ugm-3
07-01-2021,08:00,35.74558,R,ugm-3,43.53579,R,ugm-3,98.34491,R,ugm-3
07-01-2021,09:00,28.60379,R,ugm-3,44.42839,R,ugm-3,88.28691,R,ugm-3
07-01-2021,10:00,32.44937,R,ugm-3,45.96366,R,ugm-3,95.71866,R,ugm-3
07-01-2021,11:00,59.14868,R,ugm-3,47.38065,R,ugm-3,138.07402,R,ugm-3
07-01-2021,12:00,43.94948,R,ugm-3,44.19969,R,ugm-3,111.58795,R,ugm-3
07-01-2021,13:00,54.86360,R,ugm-3,46.35163,R,ugm-3,130.47465,R,ugm-3
07-01-2021,14:00,55.55947,R,ugm-3,47.96678,R,ugm-3,133.15678,R,ugm-3
07-01-2021,15:00,70.17267,R,ugm-3,49.53176,R,ugm-3,157.12835,R,ugm-3
07-01-2021,16:00,104.05040,R,ugm-3,56.37008,R,ugm-3,215.91179,R,ugm-3
07-01-2021,17:00,110.93581,R,ugm-3,59.44676,R,ugm-3,229.54597,R,ugm-3
07-01-2021,18:00,114.70814,R,ugm-3,61.03847,R,ugm-3,236.92184,R,ugm-3
07-01-2021,19:00,112.29092,R,ugm-3,61.67155,R,ugm-3,233.84856,R,ugm-3
07-01-2021,20:00,88.70470,R,ugm-3,59.95144,R,ugm-3,195.96342,R,ugm-3
07-01-2021,21:00,84.41963,R,ugm-3,60.71051,R,ugm-3,190.15213,R,ugm-3
07-01-2021,22:00,85.04224,R,ugm-3,62.99675,R,ugm-3,193.39304,R,ugm-3
07-01-2021,23:00,14.90620,R,ugm-3,43.02407,R,ugm-3,65.87992,R,ugm-3
07-01-2021,24:00,0.47612,R,ugm-3,17.48612,R,ugm-3,18.21616,R,ugm-3
08-01-2021,01:00,0.24448,R,ugm-3,15.29475,R,ugm-3,15.66962,R,ugm-3
08-01-2021,02:00,0.36672,R,ugm-3,9.06332,R,ugm-3,9.62562,R,ugm-3
08-01-2021,03:00,0.22003,R,ugm-3,14.88453,R,ugm-3,15.22191,R,ugm-3
08-01-2021,04:00,0.25671,R,ugm-3,5.31461,R,ugm-3,5.70822,R,ugm-3
08-01-2021,05:00,0.36672,R,ugm-3,10.63028,R,ugm-3,11.19258,R,ugm-3
08-01-2021,06:00,0.44007,R,ugm-3,23.61314,R,ugm-3,24.28790,R,ugm-3
08-01-2021,07:00,3.19049,R,ugm-3,42.73243,R,ugm-3,47.62444,R,ugm-3
08-01-2021,08:00,17.67603,R,ugm-3,69.82490,R,ugm-3,96.92776,R,ugm-3
08-01-2021,09:00,45.65695,R,ugm-3,76.44858,R,ugm-3,146.45494,R,ugm-3
08-01-2021,10:00,31.50147,R,ugm-3,70.11595,R,ugm-3,118.41752,R,ugm-3
08-01-2021,11:00,37.88244,R,ugm-3,64.75300,R,ugm-3,122.83859,R,ugm-3
08-01-2021,12:00,12.57858,R,ugm-3,41.43287,R,ugm-3,60.71976,R,ugm-3
08-01-2021,13:00,3.77724,R,ugm-3,21.35032,R,ugm-3,27.14201,R,ugm-3
08-01-2021,14:00,1.61358,R,ugm-3,13.56858,R,ugm-3,16.04270,R,ugm-3
08-01-2021,15:00,2.01697,R,ugm-3,21.08333,R,ugm-3,24.17598,R,ugm-3
08-01-2021,16:00,6.34430,R,ugm-3,42.70946,R,ugm-3,52.43725,R,ugm-3
08-01-2021,17:00,9.57146,R,ugm-3,64.45552,R,ugm-3,79.13155,R,ugm-3
08-01-2021,18:00,33.92183,R,ugm-3,72.84050,R,ugm-3,124.85325,R,ugm-3
08-01-2021,19:00,64.39647,R,ugm-3,76.53595,R,ugm-3,175.27583,R,ugm-3
08-01-2021,20:00,49.94761,R,ugm-3,72.55589,R,ugm-3,149.14115,R,ugm-3
08-01-2021,21:00,65.71668,R,ugm-3,73.44838,R,ugm-3,174.21254,R,ugm-3
08-01-2021,22:00,88.60016,R,ugm-3,76.19178,R,ugm-3,212.04347,R,ugm-3
08-01-2021,23:00,79.28541,R,ugm-3,70.55141,R,ugm-3,192.12067,R,ugm-3
08-01-2021,24:00,43.01655,R,ugm-3,62.92479,R,ugm-3,128.88258,R,ugm-3
09-01-2021,01:00,27.17275,R,ugm-3,56.98022,R,ugm-3,98.64453,R,ugm-3
09-01-2021,02:00,20.74676,R,ugm-3,56.29624,R,ugm-3,88.10750,R,ugm-3
09-01-2021,03:00,5.76503,R,ugm-3,52.25276,R,ugm-3,61.09235,R,ugm-3
09-01-2021,04:00,6.09551,R,ugm-3,50.84927,R,ugm-3,60.19558,R,ugm-3
09-01-2021,05:00,8.84951,R,ugm-3,47.46725,R,ugm-3,61.03630,R,ugm-3
09-01-2021,06:00,2.09304,R,ugm-3,37.70578,R,ugm-3,40.91506,R,ugm-3
09-01-2021,07:00,3.48839,R,ugm-3,40.10615,R,ugm-3,45.45495,R,ugm-3
09-01-2021,08:00,15.71613,R,ugm-3,54.08926,R,ugm-3,78.18700,R,ugm-3
09-01-2021,09:00,7.34399,R,ugm-3,34.58666,R,ugm-3,45.84729,R,ugm-3
09-01-2021,10:00,4.40639,R,ugm-3,33.76635,R,ugm-3,40.52272,R,ugm-3
09-01-2021,11:00,11.82382,R,ugm-3,39.54382,R,ugm-3,57.67342,R,ugm-3
09-01-2021,12:00,12.19102,R,ugm-3,40.43803,R,ugm-3,59.13067,R,ugm-3
09-01-2021,13:00,5.36111,R,ugm-3,31.40570,R,ugm-3,39.62596,R,ugm-3
09-01-2021,14:00,4.66343,R,ugm-3,31.07426,R,ugm-3,38.22476,R,ugm-3
09-01-2021,15:00,0.62424,R,ugm-3,10.70084,R,ugm-3,11.65799,R,ugm-3
09-01-2021,16:00,0.36720,R,ugm-3,8.96513,R,ugm-3,9.52817,R,ugm-3
09-01-2021,17:00,0.44064,R,ugm-3,7.22714,R,ugm-3,7.90277,R,ugm-3
09-01-2021,18:00,0.40392,R,ugm-3,6.72296,R,ugm-3,7.34229,R,ugm-3
09-01-2021,19:00,0.25704,R,ugm-3,7.28446,R,ugm-3,7.67858,R,ugm-3
09-01-2021,20:00,0.18360,R,ugm-3,8.51802,R,ugm-3,8.79954,R,ugm-3
09-01-2021,21:00,0.22032,R,ugm-3,7.78915,R,ugm-3,8.12696,R,ugm-3
09-01-2021,22:00,0.22032,R,ugm-3,6.72423,R,ugm-3,7.06205,R,ugm-3
09-01-2021,23:00,0.22032,R,ugm-3,5.32303,R,ugm-3,5.66085,R,ugm-3
09-01-2021,24:00,0.14688,R,ugm-3,4.42677,R,ugm-3,4.65199,R,ugm-3
10-01-2021,01:00,,,,,,,,,
10-01-2021,02:00,0.22061,R,ugm-3,3.81560,R,ugm-3,4.15385,R,ugm-3
10-01-2021,03:00,0.18384,R,ugm-3,3.64744,R,ugm-3,3.92932,R,ugm-3
10-01-2021,04:00,0.18384,R,ugm-3,4.26490,R,ugm-3,4.54679,R,ugm-3
10-01-2021,05:00,0.18384,R,ugm-3,5.10690,R,ugm-3,5.38878,R,ugm-3
10-01-2021,06:00,0.33091,R,ugm-3,4.15167,R,ugm-3,4.65905,R,ugm-3
10-01-2021,07:00,0.18384,R,ugm-3,5.33143,R,ugm-3,5.61331,R,ugm-3
10-01-2021,08:00,0.22061,R,ugm-3,5.94866,R,ugm-3,6.28691,R,ugm-3
10-01-2021,09:00,0.36768,R,ugm-3,8.47367,R,ugm-3,9.03744,R,ugm-3
10-01-2021,10:00,0.33091,R,ugm-3,8.24939,R,ugm-3,8.75677,R,ugm-3
10-01-2021,11:00,0.73535,R,ugm-3,13.13029,R,ugm-3,14.25782,R,ugm-3
10-01-2021,12:00,1.25010,R,ugm-3,17.39301,R,ugm-3,19.30980,R,ugm-3
10-01-2021,13:00,1.54424,R,ugm-3,17.16653,R,ugm-3,19.53433,R,ugm-3
10-01-2021,14:00,0.84566,R,ugm-3,8.35825,R,ugm-3,9.65490,R,ugm-3
10-01-2021,15:00,0.36768,R,ugm-3,5.72315,R,ugm-3,6.28691,R,ugm-3
10-01-2021,16:00,0.25737,R,ugm-3,6.00454,R,ugm-3,6.39918,R,ugm-3
10-01-2021,17:00,0.18384,R,ugm-3,7.01543,R,ugm-3,7.29731,R,ugm-3
10-01-2021,18:00,0.11030,R,ugm-3,5.83712,R,ugm-3,6.00625,R,ugm-3
10-01-2021,19:00,0.22061,R,ugm-3,4.37693,R,ugm-3,4.71519,R,ugm-3
10-01-2021,20:00,0.18384,R,ugm-3,3.75971,R,ugm-3,4.04159,R,ugm-3
10-01-2021,21:00,0.22061,R,ugm-3,3.59106,R,ugm-3,3.92932,R,ugm-3
10-01-2021,22:00,0.22061,R,ugm-3,2.74907,R,ugm-3,3.08732,R,ugm-3
10-01-2021,23:00,0.18384,R,ugm-3,2.30024,R,ugm-3,2.58213,R,ugm-3
10-01-2021,24:00,0.25737,R,ugm-3,1.57003,R,ugm-3,1.96466,R,ugm-3
11-01-2021,01:00,0.29452,R,ugm-3,1.34739,R,ugm-3,1.79898,R,ugm-3
11-01-2021,02:00,0.22089,R,ugm-3,1.29163,R,ugm-3,1.63033,R,ugm-3
11-01-2021,03:00,0.11045,R,ugm-3,1.46098,R,ugm-3,1.63033,R,ugm-3
11-01-2021,04:00,0.14726,R,ugm-3,1.17966,R,ugm-3,1.40546,R,ugm-3
11-01-2021,05:00,0.18408,R,ugm-3,1.23565,R,ugm-3,1.51789,R,ugm-3
11-01-2021,06:00,0.40497,R,ugm-3,1.57157,R,ugm-3,2.19251,R,ugm-3
11-01-2021,07:00,0.29452,R,ugm-3,3.09016,R,ugm-3,3.54175,R,ugm-3
11-01-2021,08:00,0.62586,R,ugm-3,6.68605,R,ugm-3,7.64568,R,ugm-3
11-01-2021,09:00,0.44178,R,ugm-3,6.12502,R,ugm-3,6.80241,R,ugm-3
11-01-2021,10:00,0.40497,R,ugm-3,5.56307,R,ugm-3,6.18401,R,ugm-3
11-01-2021,11:00,0.33134,R,ugm-3,5.95706,R,ugm-3,6.46510,R,ugm-3
11-01-2021,12:00,0.36815,R,ugm-3,5.90061,R,ugm-3,6.46510,R,ugm-3
11-01-2021,13:00,0.55223,R,ugm-3,5.89945,R,ugm-3,6.74619,R,ugm-3
11-01-2021,14:00,0.40497,R,ugm-3,5.61929,R,ugm-3,6.24023,R,ugm-3
11-01-2021,15:00,0.51541,R,ugm-3,6.29321,R,ugm-3,7.08350,R,ugm-3
11-01-2021,16:00,0.51541,R,ugm-3,7.19270,R,ugm-3,7.98299,R,ugm-3
11-01-2021,17:00,0.18408,R,ugm-3,8.20671,R,ugm-3,8.48896,R,ugm-3
11-01-2021,18:00,0.25771,R,ugm-3,6.40727,R,ugm-3,6.80241,R,ugm-3
11-01-2021,19:00,0.36815,R,ugm-3,6.01304,R,ugm-3,6.57754,R,ugm-3
11-01-2021,20:00,1.28854,R,ugm-3,12.92211,R,ugm-3,14.89784,R,ugm-3
11-01-2021,21:00,1.21491,R,ugm-3,15.95836,R,ugm-3,17.82119,R,ugm-3
11-01-2021,22:00,0.95720,R,ugm-3,10.33815,R,ugm-3,11.80584,R,ugm-3
11-01-2021,23:00,0.47860,R,ugm-3,11.97149,R,ugm-3,12.70533,R,ugm-3
11-01-2021,24:00,1.17809,R,ugm-3,17.98245,R,ugm-3,19.78883,R,ugm-3
12-01-2021,01:00,,,,,,,,,
12-01-2021,02:00,0.36863,R,ugm-3,29.61339,R,ugm-3,30.17861,R,ugm-3
12-01-2021,03:00,0.18432,R,ugm-3,17.50926,R,ugm-3,17.79187,R,ugm-3
12-01-2021,04:00,0.40549,R,ugm-3,22.96937,R,ugm-3,23.59112,R,ugm-3
12-01-2021,05:00,0.40549,R,ugm-3,16.60709,R,ugm-3,17.22884,R,ugm-3
12-01-2021,06:00,0.51608,R,ugm-3,23.08132,R,ugm-3,23.87263,R,ugm-3
12-01-2021,07:00,3.20708,R,ugm-3,42.82781,R,ugm-3,47.74527,R,ugm-3
12-01-2021,08:00,16.25658,R,ugm-3,56.88241,R,ugm-3,81.80881,R,ugm-3
12-01-2021,09:00,126.73496,R,ugm-3,79.19759,R,ugm-3,273.52182,R,ugm-3
12-01-2021,10:00,85.92763,R,ugm-3,70.43157,R,ugm-3,202.18544,R,ugm-3
12-01-2021,11:00,41.83950,R,ugm-3,58.98250,R,ugm-3,123.13549,R,ugm-3
12-01-2021,12:00,27.68411,R,ugm-3,52.31022,R,ugm-3,94.75859,R,ugm-3
12-01-2021,13:00,24.66134,R,ugm-3,49.56932,R,ugm-3,87.38285,R,ugm-3
12-01-2021,14:00,6.22985,R,ugm-3,29.35334,R,ugm-3,38.90564,R,ugm-3
12-01-2021,15:00,6.56161,R,ugm-3,38.86664,R,ugm-3,48.92764,R,ugm-3
12-01-2021,16:00,13.16009,R,ugm-3,55.04280,R,ugm-3,75.22132,R,ugm-3
12-01-2021,17:00,66.86947,R,ugm-3,79.27187,R,ugm-3,181.80362,R,ugm-3
12-01-2021,18:00,110.69956,R,ugm-3,73.54995,R,ugm-3,243.28691,R,ugm-3
12-01-2021,19:00,98.79282,R,ugm-3,68.77862,R,ugm-3,220.25883,R,ugm-3
12-01-2021,20:00,135.10286,R,ugm-3,70.53344,R,ugm-3,277.68827,R,ugm-3
12-01-2021,21:00,137.60955,R,ugm-3,75.97997,R,ugm-3,286.97833,R,ugm-3
12-01-2021,22:00,118.92001,R,ugm-3,70.57332,R,ugm-3,252.91479,R,ugm-3
12-01-2021,23:00,74.75815,R,ugm-3,63.34743,R,ugm-3,177.97499,R,ugm-3
12-01-2021,24:00,51.71878,R,ugm-3,58.36075,R,ugm-3,137.66177,R,ugm-3
13-01-2021,01:00,,,,,,,,,
13-01-2021,02:00,42.85330,R,ugm-3,49.88895,R,ugm-3,115.59642,R,ugm-3
13-01-2021,03:00,32.96123,R,ugm-3,50.33917,R,ugm-3,100.87902,R,ugm-3
13-01-2021,04:00,28.71651,R,ugm-3,48.61494,R,ugm-3,92.64630,R,ugm-3
13-01-2021,05:00,27.20317,R,ugm-3,46.02956,R,ugm-3,87.74051,R,ugm-3
13-01-2021,06:00,29.23326,R,ugm-3,42.12736,R,ugm-3,86.95107,R,ugm-3
13-01-2021,07:00,41.08158,R,ugm-3,41.38423,R,ugm-3,104.37511,R,ugm-3
13-01-2021,08:00,61.67774,R,ugm-3,43.80616,R,ugm-3,138.37738,R,ugm-3
13-01-2021,09:00,32.66595,R,ugm-3,40.07812,R,ugm-3,90.16521,R,ugm-3
13-01-2021,10:00,51.34275,R,ugm-3,42.51082,R,ugm-3,121.23527,R,ugm-3
13-01-2021,11:00,47.54095,R,ugm-3,40.16383,R,ugm-3,113.05894,R,ugm-3
13-01-2021,12:00,118.07725,R,ugm-3,54.42911,R,ugm-3,235.47837,R,ugm-3
13-01-2021,13:00,44.10826,R,ugm-3,35.72840,R,ugm-3,103.36012,R,ugm-3
13-01-2021,14:00,25.28381,R,ugm-3,37.01817,R,ugm-3,75.78614,R,ugm-3
13-01-2021,15:00,31.96465,R,ugm-3,41.49177,R,ugm-3,90.50354,R,ugm-3
13-01-2021,16:00,45.95379,R,ugm-3,51.45044,R,ugm-3,121.91193,R,ugm-3
13-01-2021,17:00,58.39269,R,ugm-3,54.48202,R,ugm-3,144.01623,R,ugm-3
13-01-2021,18:00,60.53351,R,ugm-3,54.01890,R,ugm-3,146.83565,R,ugm-3
13-01-2021,19:00,100.65541,R,ugm-3,64.67678,R,ugm-3,219.01293,R,ugm-3
13-01-2021,20:00,4.20782,R,ugm-3,40.74528,R,ugm-3,47.19717,R,ugm-3
13-01-2021,21:00,2.32537,R,ugm-3,29.81647,R,ugm-3,33.38199,R,ugm-3
13-01-2021,22:00,0.77513,R,ugm-3,15.89721,R,ugm-3,17.08572,R,ugm-3
13-01-2021,23:00,2.21464,R,ugm-3,21.52798,R,ugm-3,24.92372,R,ugm-3
13-01-2021,24:00,1.80862,R,ugm-3,16.28613,R,ugm-3,19.05931,R,ugm-3
14-01-2021,01:00,,,,,,,,,
14-01-2021,02:00,1.51529,R,ugm-3,17.15998,R,ugm-3,19.48340,R,ugm-3
14-01-2021,03:00,1.25659,R,ugm-3,13.77293,R,ugm-3,15.69967,R,ugm-3
14-01-2021,04:00,1.33050,R,ugm-3,14.39375,R,ugm-3,16.43382,R,ugm-3
14-01-2021,05:00,0.55438,R,ugm-3,11.00943,R,ugm-3,11.85946,R,ugm-3
14-01-2021,06:00,0.51742,R,ugm-3,7.67768,R,ugm-3,8.47104,R,ugm-3
14-01-2021,07:00,2.80884,R,ugm-3,17.09668,R,ugm-3,21.40350,R,ugm-3
14-01-2021,08:00,2.99363,R,ugm-3,18.73344,R,ugm-3,23.32360,R,ugm-3
14-01-2021,09:00,3.95455,R,ugm-3,22.79447,R,ugm-3,28.85802,R,ugm-3
14-01-2021,10:00,,,,,,,,,
14-01-2021,11:00,7.87213,R,ugm-3,33.33436,R,ugm-3,45.40479,R,ugm-3
14-01-2021,12:00,7.94605,R,ugm-3,32.43039,R,ugm-3,44.61416,R,ugm-3
14-01-2021,13:00,5.28505,R,ugm-3,25.55465,R,ugm-3,33.65828,R,ugm-3
14-01-2021,14:00,6.57859,R,ugm-3,33.51060,R,ugm-3,43.59763,R,ugm-3
14-01-2021,15:00,2.62404,R,ugm-3,18.84834,R,ugm-3,22.87182,R,ugm-3
14-01-2021,16:00,5.13721,R,ugm-3,33.74411,R,ugm-3,41.62106,R,ugm-3
14-01-2021,17:00,3.14146,R,ugm-3,43.86342,R,ugm-3,48.68026,R,ugm-3
14-01-2021,18:00,16.52039,R,ugm-3,59.94425,R,ugm-3,85.27516,R,ugm-3
14-01-2021,19:00,26.31435,R,ugm-3,58.31130,R,ugm-3,98.65941,R,ugm-3
14-01-2021,20:00,14.04418,R,ugm-3,50.92154,R,ugm-3,72.45565,R,ugm-3
14-01-2021,21:00,28.27315,R,ugm-3,55.98554,R,ugm-3,99.33709,R,ugm-3
14-01-2021,22:00,34.92565,R,ugm-3,55.55511,R,ugm-3,109.10703,R,ugm-3
14-01-2021,23:00,29.45581,R,ugm-3,53.72035,R,ugm-3,98.88530,R,ugm-3
14-01-2021,24:00,37.32795,R,ugm-3,51.70222,R,ugm-3,108.93761,R,ugm-3
15-01-2021,01:00,,,,,,,,,
15-01-2021,02:00,31.08508,R,ugm-3,44.69729,R,ugm-3,92.36041,R,ugm-3
15-01-2021,03:00,16.68973,R,ugm-3,43.97669,R,ugm-3,69.56724,R,ugm-3
15-01-2021,04:00,13.21116,R,ugm-3,43.99390,R,ugm-3,64.25072,R,ugm-3
15-01-2021,05:00,0.59210,R,ugm-3,18.37866,R,ugm-3,19.28653,R,ugm-3
15-01-2021,06:00,0.55509,R,ugm-3,10.85653,R,ugm-3,11.70766,R,ugm-3
15-01-2021,07:00,1.40623,R,ugm-3,19.73204,R,ugm-3,21.88823,R,ugm-3
15-01-2021,08:00,53.47374,R,ugm-3,51.65637,R,ugm-3,133.64829,R,ugm-3
15-01-2021,09:00,54.73194,R,ugm-3,50.17962,R,ugm-3,134.10076,R,ugm-3
15-01-2021,10:00,32.23227,R,ugm-3,47.34988,R,ugm-3,96.77199,R,ugm-3
15-01-2021,11:00,37.22808,R,ugm-3,48.73913,R,ugm-3,105.82139,R,ugm-3
15-01-2021,12:00,19.90925,R,ugm-3,44.97882,R,ugm-3,75.50591,R,ugm-3
15-01-2021,13:00,6.88312,R,ugm-3,28.30187,R,ugm-3,38.85585,R,ugm-3
15-01-2021,14:00,2.51641,R,ugm-3,20.80117,R,ugm-3,24.65961,R,ugm-3
15-01-2021,15:00,2.29438,R,ugm-3,15.65542,R,ugm-3,19.17341,R,ugm-3
15-01-2021,16:00,3.40456,R,ugm-3,14.57531,R,ugm-3,19.79556,R,ugm-3
15-01-2021,17:00,1.22120,R,ugm-3,17.30093,R,ugm-3,19.17341,R,ugm-3
15-01-2021,18:00,1.51725,R,ugm-3,15.88550,R,ugm-3,18.21191,R,ugm-3
15-01-2021,19:00,1.55425,R,ugm-3,20.80593,R,ugm-3,23.18908,R,ugm-3
15-01-2021,20:00,1.77629,R,ugm-3,29.17552,R,ugm-3,31.89913,R,ugm-3
15-01-2021,21:00,1.51725,R,ugm-3,23.91684,R,ugm-3,26.24325,R,ugm-3
15-01-2021,22:00,0.74012,R,ugm-3,19.11319,R,ugm-3,20.24803,R,ugm-3
15-01-2021,23:00,1.03617,R,ugm-3,24.42825,R,ugm-3,26.01702,R,ugm-3